Regional Weather Roundup
Issued by NWS

Home | Current Version | Previous Version | Text Only | Print | Product List | Glossary Off
Versions: 1 2 3 4 5 6 7 8 9 10 11 12 13 14 15 16 17 18 19 20 21 22 23 24 25 26 27 28 29 30 31 32 33 34 35 36 37 38 39 40 41 42 43 44 45 46 47 48 49 50

000
ASUS44 KMEG 191700
RWRTN
TENNESSEE HOURLY STATE WEATHER ROUNDUP
NATIONAL WEATHER SERVICE MEMPHIS TN
1200 PM CDT SAT APR 19 2014

TNZ002-004-019-021-049-052-054-088>092-191800-
WEST TENNESSEE

CITY           SKY/WX    TMP DP  RH WIND       PRES   REMARKS
MEMPHIS INTL   MOSUNNY   75  40  28 NE10G16   30.21S
NWS MEMPHIS      N/A     74 N/A N/A MISG        N/A
JACKSON        SUNNY     76  38  25 NE13G20   30.20F
DYERSBURG      SUNNY     72  43  35 NE9       30.23F
UNION CITY     SUNNY     72  45  37 E7        30.21F
LEXINGTON      SUNNY     72  37  28 NE9       30.19F
$$

TNZ008-025-027-028-033-062-065-066-191800-
NORTH MIDDLE TENNESSEE

CITY           SKY/WX    TMP DP  RH WIND       PRES   REMARKS
NASHVILLE      MOSUNNY   73  41  31 NE18G26   30.21F
CLARKSVILLE    SUNNY     71  45  39 NE12G20   30.22F
CROSSVILLE     PTSUNNY   65  35  33 NE16      30.19F
$$

TNZ061-075-076-078-094-096-097-191800-
SOUTH MIDDLE TENNESSEE

CITY           SKY/WX    TMP DP  RH WIND       PRES   REMARKS
TULLAHOMA      SUNNY     66  37  34 NE10      30.19S
WINCHESTER     SUNNY     66  43  42 NE14      30.17S
COLUMBIA       SUNNY     72  54  53 NE12      30.18F
$$

TNZ017-018-042-046-047-191800-
NORTHEAST TENNESSEE

CITY           SKY/WX    TMP DP  RH WIND       PRES   REMARKS
TRI CITIES     PTSUNNY   72  35  25 NE12G21   30.16F
ELIZABETHTON   MOSUNNY   63  34  34 CALM      30.17F
$$

TNZ012-013-036-069-073-074-191800-
CENTRAL EAST TENNESSEE

CITY           SKY/WX    TMP DP  RH WIND       PRES   REMARKS
KNOXVILLE      CLOUDY    63  40  42 E9        30.15S
OAK RIDGE      CLOUDY    71  37  28 NE9G21    30.16F
$$

TNZ083-085-099-191800-
SOUTHEAST TENNESSEE

CITY           SKY/WX    TMP DP  RH WIND       PRES   REMARKS
CHATTANOOGA    CLOUDY    65  40  39 N10       30.16R
$$

SKY/WX REPORTED AS FAIR MEANS FEW OR NO CLOUDS BELOW
12 THOUSAND FEET.




USA.gov is the U.S. government's official web portal to all federal, state and local government web resources and services.